Regional Weather Roundup
Issued by NWS

Home | Current Version | Previous Version | Graphics & Text | Print | Product List | Glossary On
Versions: 1 2 3 4 5 6 7 8 9 10 11 12 13 14 15 16 17 18 19 20 21 22 23 24 25 26 27 28
000
ASUS45 KSLC 222010
RWRUT

UTAH REGIONAL WEATHER ROUNDUP
NATIONAL WEATHER SERVICE SALT LAKE CITY UT
200 PM MDT WED MAR 22 2017

UTZ001>011-023>025-222100-

NORTHERN UTAH

CITY           SKY/WX    TMP DP  RH WIND       PRES   REMARKS
BRIGHAM CITY     N/A     60  43  52 N3        29.86F
DUGWAY         PTSUNNY   65  40  39 NW12      29.80F
HILL AFB       PTSUNNY   56  45  67 N7        29.86F
LOGAN          PTSUNNY   59  45  59 N5        29.87F
OGDEN          PTSUNNY   58  44  60 NE6       29.85F
SALT LAKE CITY TSTM      55  49  80 NW9       29.86R
WENDOVER       PTSUNNY   57  37  47 E8        29.85F
HEBER CITY     MOSUNNY   63  30  29 SW8G16    29.87F

$$

UTZ011>015-024>027-222100-

CENTRAL/NORTHEAST UTAH

CITY           SKY/WX    TMP DP  RH WIND       PRES   REMARKS
PROVO AIRPORT  MOSUNNY   66  39  37 SW12      29.85F
MOAB/CANYONLAN PTSUNNY   72  25  17 SW14G22   29.85F
DELTA          PTSUNNY   66  28  24 SW23G31   29.84F
PRICE          CLOUDY    63  27  25 SE9       29.89F
RICHFIELD      SUNNY     68  28  22 S23G30    29.86F
ROOSEVELT      MOSUNNY   64  32  29 SE5       29.90F
VERNAL         MOSUNNY   67  30  25 S13G23    29.89F

$$

UTZ013>016-019>022-027-222100-

SOUTHERN UTAH

CITY           SKY/WX    TMP DP  RH WIND       PRES   REMARKS
BRYCE CANYON   CLOUDY    52  31  44 S20G28    30.03F
CEDAR CITY     MOSUNNY   63  33  32 S25G33    29.89F
MILFORD        CLOUDY    66  33  29 SW26G35   29.86F
ST GEORGE      PTCLDY    71  40  32 SW21G31   29.85F
HANKSVILLE     PTSUNNY   72  25  17 S13G18    29.88F
KANAB          CLOUDY    64  36  34 SW5       29.98F
BLANDING       CLOUDY    61  26  26 S9        30.08F

$$

REGIONAL REPORTS     COLORADO/ARIZONA

CITY           SKY/WX    TMP DP  RH WIND       PRES   REMARKS
CRAIG, CO      CLOUDY    68  19  15 SW22G32   29.96F
GRAND JUNCTION MOSUNNY   70  24  17 VRB6      29.91F
RIFLE, CO      CLOUDY    69  19  15 S15G26    29.96F
MONTROSE, CO   CLOUDY    65  23  20 N10       29.99F
CORTEZ, CO     CLOUDY    67  22  18 S13G18    30.03F
COLORADO CITY  MOCLDY    66  36  32 S12       29.96F
PAGE, AZ       CLOUDY    71  32  23 N6        29.89F
GRAND CANYON   CLOUDY    60  35  39 SW22G30   30.04F
KINGMAN, AZ    PTSUNNY   69  30  23 SW22G30   29.94F
FLAGSTAFF, AZ  CLOUDY    54  34  46 SW20G26   30.08F

$$

REGIONAL REPORTS    NEVADA/IDAHO/WYOMING

CITY           SKY/WX    TMP DP  RH WIND       PRES   REMARKS
LAS VEGAS, NV  CLOUDY    71  28  20 S15G23    29.86F
ELY, NY        CLOUDY    55   2  11 S22G33    29.88F
ELKO, NV       PTSUNNY   51  36  56 S6        29.88F
POCATELLO, ID  PTSUNNY   47  43  86 E14       29.93F
BURLEY, ID     CLOUDY    51  40  65 NW5       29.90F
FORT BRIDGER,  CLOUDY    56  39  53 E9        29.97F
EVANSTON, WY   LGT RAIN  48  37  65 NW12      29.93F
ROCK SPRINGS,  CLOUDY    53  37  54 N13       29.95F
KEMMERER, WY   RAIN      41  34  75 SW30G41   29.98S

$$




USA.gov is the U.S. government's official web portal to all federal, state and local government web resources and services.